User: anonymous   Login
Location: Caltech
(34.1382°N, 118.1253°W)
Time: 14:06:49
(UTC-08:00)
Language:

Iridium 62 - Orbit

View from above orbital plane
View from above orbital plane
View from above satellite
View from above satellite

Ground track
Ground track

The orbit data is extracted from the following two-line orbital elements,

1 25285U 98021A   17327.14625526 -.00000032  00000-0 -18609-4 0  9998
2 25285  86.3959 157.5078 0001799  88.1896 271.9506 14.34220571 27809
Epoch (UTC): 23 November 2017 03:30:36
Eccentricity: 0.0001799
inclination: 86.3959°
perigee height: 776 km
apogee height: 779 km
right ascension of ascending node: 157.5078°
argument of perigee: 88.1896°
revolutions per day: 14.34220571
mean anomaly at epoch: 271.9506°
orbit number at epoch: 2780

The dashed part of the orbit path shows where the satellite is in the earth's shadow,  

DLR